owner,sensor,date,latitude,longitude,air_temperature,qcFlag 
COMPS,ioos:station:USF.COMPS:BGC:1,2014-04-01T00:00:00Z,26.4040,-81.8810,22.11,1111122 
COMPS,ioos:station:USF.COMPS:BGC:1,2014-04-01T00:06:00Z,26.4040,-81.8810,19.83,1111122 
COMPS,ioos:station:USF.COMPS:BGC:1,2014-04-01T00:12:00Z,26.4040,-81.8810,21.8,1111122 
COMPS,ioos:station:USF.COMPS:BGC:1,2014-04-01T00:18:00Z,26.4040,-81.8810,21.6,1111122 
COMPS,ioos:station:USF.COMPS:BGC:1,2014-04-01T00:24:00Z,26.4040,-81.8810,21.44,1111122 
COMPS,ioos:station:USF.COMPS:BGC:1,2014-04-01T00:30:00Z,26.4040,-81.8810,21.32,1111122 
COMPS,ioos:station:USF.COMPS:BGC:1,2014-04-01T00:36:00Z,26.4040,-81.8810,21.17,1111122 
COMPS,ioos:station:USF.COMPS:BGC:1,2014-04-01T00:42:00Z,26.4040,-81.8810,21.03,1111122 
COMPS,ioos:station:USF.COMPS:BGC:1,2014-04-01T00:48:00Z,26.4040,-81.8810,20.89,1111122 
COMPS,ioos:station:USF.COMPS:BGC:1,2014-04-01T00:54:00Z,26.4040,-81.8810,20.81,1111122 
COMPS,ioos:station:USF.COMPS:BGC:1,2014-04-01T01:00:00Z,26.4040,-81.8810,20.76,1111122 
COMPS,ioos:station:USF.COMPS:BGC:1,2014-04-01T01:06:00Z,26.4040,-81.8810,20.73,1111122 
COMPS,ioos:station:USF.COMPS:BGC:1,2014-04-01T01:12:00Z,26.4040,-81.8810,20.63,1111122 
COMPS,ioos:station:USF.COMPS:BGC:1,2014-04-01T01:18:00Z,26.4040,-81.8810,20.53,1111122 
COMPS,ioos:station:USF.COMPS:BGC:1,2014-04-01T01:24:00Z,26.4040,-81.8810,20.41,1111122 
COMPS,ioos:station:USF.COMPS:BGC:1,2014-04-01T01:30:00Z,26.4040,-81.8810,20.22,1111122 
COMPS,ioos:station:USF.COMPS:BGC:1,2014-04-01T01:36:00Z,26.4040,-81.8810,20.22,1111122 
COMPS,ioos:station:USF.COMPS:BGC:1,2014-04-01T01:42:00Z,26.4040,-81.8810,20.16,1111122 
COMPS,ioos:station:USF.COMPS:BGC:1,2014-04-01T01:48:00Z,26.4040,-81.8810,20.08,1111122 
COMPS,ioos:station:USF.COMPS:BGC:1,2014-04-01T01:54:00Z,26.4040,-81.8810,20.01,1111122 
COMPS,ioos:station:USF.COMPS:BGC:1,2014-04-01T02:00:00Z,26.4040,-81.8810,20.04,1111122 
COMPS,ioos:station:USF.COMPS:BGC:1,2014-04-01T02:06:00Z,26.4040,-81.8810,19.93,1111122 
COMPS,ioos:station:USF.COMPS:BGC:1,2014-04-01T02:12:00Z,26.4040,-81.8810,19.82,1111122 
COMPS,ioos:station:USF.COMPS:BGC:1,2014-04-01T02:18:00Z,26.4040,-81.8810,19.86,1111122 
COMPS,ioos:station:USF.COMPS:BGC:1,2014-04-01T02:24:00Z,26.4040,-81.8810,19.93,1111122 
COMPS,ioos:station:USF.COMPS:BGC:1,2014-04-01T02:30:00Z,26.4040,-81.8810,19.94,1111122 
COMPS,ioos:station:USF.COMPS:BGC:1,2014-04-01T02:36:00Z,26.4040,-81.8810,19.93,1111122 
COMPS,ioos:station:USF.COMPS:BGC:1,2014-04-01T02:42:00Z,26.4040,-81.8810,19.91,1111122 
COMPS,ioos:station:USF.COMPS:BGC:1,2014-04-01T02:48:00Z,26.4040,-81.8810,19.96,1111122 
COMPS,ioos:station:USF.COMPS:BGC:1,2014-04-01T02:54:00Z,26.4040,-81.8810,19.85,1111122 
COMPS,ioos:station:USF.COMPS:BGC:1,2014-04-01T03:00:00Z,26.4040,-81.8810,19.83,1111122 
COMPS,ioos:station:USF.COMPS:BGC:1,2014-04-01T03:06:00Z,26.4040,-81.8810,19.84,1111122 
COMPS,ioos:station:USF.COMPS:BGC:1,2014-04-01T03:12:00Z,26.4040,-81.8810,19.83,1111122 
COMPS,ioos:station:USF.COMPS:BGC:1,2014-04-01T03:18:00Z,26.4040,-81.8810,19.79,1111122 
COMPS,ioos:station:USF.COMPS:BGC:1,2014-04-01T03:24:00Z,26.4040,-81.8810,19.84,1111122 
COMPS,ioos:station:USF.COMPS:BGC:1,2014-04-01T03:30:00Z,26.4040,-81.8810,19.89,1111122 
COMPS,ioos:station:USF.COMPS:BGC:1,2014-04-01T03:36:00Z,26.4040,-81.8810,19.86,1111122 
COMPS,ioos:station:USF.COMPS:BGC:1,2014-04-01T03:42:00Z,26.4040,-81.8810,19.69,1111122 
COMPS,ioos:station:USF.COMPS:BGC:1,2014-04-01T03:48:00Z,26.4040,-81.8810,19.62,1111122 
COMPS,ioos:station:USF.COMPS:BGC:1,2014-04-01T03:54:00Z,26.4040,-81.8810,19.43,1111122 
COMPS,ioos:station:USF.COMPS:BGC:1,2014-04-01T04:00:00Z,26.4040,-81.8810,19.38,1111122 
COMPS,ioos:station:USF.COMPS:BGC:1,2014-04-01T04:06:00Z,26.4040,-81.8810,19.4,1111122 
COMPS,ioos:station:USF.COMPS:BGC:1,2014-04-01T04:12:00Z,26.4040,-81.8810,19.41,1111122 
COMPS,ioos:station:USF.COMPS:BGC:1,2014-04-01T04:18:00Z,26.4040,-81.8810,19.41,1111122 
COMPS,ioos:station:USF.COMPS:BGC:1,2014-04-01T04:24:00Z,26.4040,-81.8810,19.22,1111122 
COMPS,ioos:station:USF.COMPS:BGC:1,2014-04-01T04:30:00Z,26.4040,-81.8810,19.25,1111122 
COMPS,ioos:station:USF.COMPS:BGC:1,2014-04-01T04:36:00Z,26.4040,-81.8810,19.27,1111122 
COMPS,ioos:station:USF.COMPS:BGC:1,2014-04-01T04:42:00Z,26.4040,-81.8810,19.27,1111122 
COMPS,ioos:station:USF.COMPS:BGC:1,2014-04-01T04:48:00Z,26.4040,-81.8810,19.22,1111122 
COMPS,ioos:station:USF.COMPS:BGC:1,2014-04-01T04:54:00Z,26.4040,-81.8810,19.22,1111122 
COMPS,ioos:station:USF.COMPS:BGC:1,2014-04-01T05:00:00Z,26.4040,-81.8810,19.19,1111122 
COMPS,ioos:station:USF.COMPS:BGC:1,2014-04-01T05:06:00Z,26.4040,-81.8810,19.14,1111122 
COMPS,ioos:station:USF.COMPS:BGC:1,2014-04-01T05:12:00Z,26.4040,-81.8810,19.09,1111122 
COMPS,ioos:station:USF.COMPS:BGC:1,2014-04-01T05:18:00Z,26.4040,-81.8810,19.01,1111122 
COMPS,ioos:station:USF.COMPS:BGC:1,2014-04-01T05:24:00Z,26.4040,-81.8810,18.99,1111122 
COMPS,ioos:station:USF.COMPS:BGC:1,2014-04-01T05:30:00Z,26.4040,-81.8810,18.98,1111122 
COMPS,ioos:station:USF.COMPS:BGC:1,2014-04-01T05:36:00Z,26.4040,-81.8810,18.92,1111122 
COMPS,ioos:station:USF.COMPS:BGC:1,2014-04-01T05:42:00Z,26.4040,-81.8810,18.77,1111122 
COMPS,ioos:station:USF.COMPS:BGC:1,2014-04-01T05:48:00Z,26.4040,-81.8810,18.67,1111122 
COMPS,ioos:station:USF.COMPS:BGC:1,2014-04-01T05:54:00Z,26.4040,-81.8810,18.61,1111122 
COMPS,ioos:station:USF.COMPS:BGC:1,2014-04-01T06:00:00Z,26.4040,-81.8810,18.39,1111122 
COMPS,ioos:station:USF.COMPS:BGC:1,2014-04-01T06:06:00Z,26.4040,-81.8810,18.18,1111122 
COMPS,ioos:station:USF.COMPS:BGC:1,2014-04-01T06:12:00Z,26.4040,-81.8810,18.1,1111122 
COMPS,ioos:station:USF.COMPS:BGC:1,2014-04-01T06:18:00Z,26.4040,-81.8810,18.28,1111122 
COMPS,ioos:station:USF.COMPS:BGC:1,2014-04-01T06:24:00Z,26.4040,-81.8810,18.1,1111122 
COMPS,ioos:station:USF.COMPS:BGC:1,2014-04-01T06:30:00Z,26.4040,-81.8810,17.9,1111122 
COMPS,ioos:station:USF.COMPS:BGC:1,2014-04-01T06:36:00Z,26.4040,-81.8810,17.8,1111122 
COMPS,ioos:station:USF.COMPS:BGC:1,2014-04-01T06:42:00Z,26.4040,-81.8810,17.95,1111122 
COMPS,ioos:station:USF.COMPS:BGC:1,2014-04-01T06:48:00Z,26.4040,-81.8810,18.03,1111122 
COMPS,ioos:station:USF.COMPS:BGC:1,2014-04-01T06:54:00Z,26.4040,-81.8810,17.97,1111122 
COMPS,ioos:station:USF.COMPS:BGC:1,2014-04-01T07:00:00Z,26.4040,-81.8810,17.94,1111122 
COMPS,ioos:station:USF.COMPS:BGC:1,2014-04-01T07:06:00Z,26.4040,-81.8810,17.85,1111122 
COMPS,ioos:station:USF.COMPS:BGC:1,2014-04-01T07:12:00Z,26.4040,-81.8810,17.79,1111122 
COMPS,ioos:station:USF.COMPS:BGC:1,2014-04-01T07:18:00Z,26.4040,-81.8810,17.78,1111122 
COMPS,ioos:station:USF.COMPS:BGC:1,2014-04-01T07:24:00Z,26.4040,-81.8810,17.77,1111122 
COMPS,ioos:station:USF.COMPS:BGC:1,2014-04-01T07:30:00Z,26.4040,-81.8810,17.82,1111122 
COMPS,ioos:station:USF.COMPS:BGC:1,2014-04-01T07:36:00Z,26.4040,-81.8810,17.78,1111122 
COMPS,ioos:station:USF.COMPS:BGC:1,2014-04-01T07:42:00Z,26.4040,-81.8810,17.73,1111122 
COMPS,ioos:station:USF.COMPS:BGC:1,2014-04-01T07:48:00Z,26.4040,-81.8810,17.67,1111122 
COMPS,ioos:station:USF.COMPS:BGC:1,2014-04-01T07:54:00Z,26.4040,-81.8810,17.68,1111122 
COMPS,ioos:station:USF.COMPS:BGC:1,2014-04-01T08:00:00Z,26.4040,-81.8810,17.64,1111122 
COMPS,ioos:station:USF.COMPS:BGC:1,2014-04-01T08:06:00Z,26.4040,-81.8810,17.55,1111122 
COMPS,ioos:station:USF.COMPS:BGC:1,2014-04-01T08:12:00Z,26.4040,-81.8810,17.44,1111122 
COMPS,ioos:station:USF.COMPS:BGC:1,2014-04-01T08:18:00Z,26.4040,-81.8810,17.38,1111122 
COMPS,ioos:station:USF.COMPS:BGC:1,2014-04-01T08:24:00Z,26.4040,-81.8810,17.31,1111122 
COMPS,ioos:station:USF.COMPS:BGC:1,2014-04-01T08:30:00Z,26.4040,-81.8810,17.22,1111122 
COMPS,ioos:station:USF.COMPS:BGC:1,2014-04-01T08:36:00Z,26.4040,-81.8810,17.24,1111122 
COMPS,ioos:station:USF.COMPS:BGC:1,2014-04-01T08:42:00Z,26.4040,-81.8810,17.2,1111122 
COMPS,ioos:station:USF.COMPS:BGC:1,2014-04-01T08:48:00Z,26.4040,-81.8810,17.22,1111122 
COMPS,ioos:station:USF.COMPS:BGC:1,2014-04-01T08:54:00Z,26.4040,-81.8810,17.23,1111122 
COMPS,ioos:station:USF.COMPS:BGC:1,2014-04-01T09:00:00Z,26.4040,-81.8810,17.26,1111122 
COMPS,ioos:station:USF.COMPS:BGC:1,2014-04-01T09:06:00Z,26.4040,-81.8810,17.27,1111122 
COMPS,ioos:station:USF.COMPS:BGC:1,2014-04-01T09:12:00Z,26.4040,-81.8810,17.3,1111122 
COMPS,ioos:station:USF.COMPS:BGC:1,2014-04-01T09:18:00Z,26.4040,-81.8810,17.32,1111122 
COMPS,ioos:station:USF.COMPS:BGC:1,2014-04-01T09:24:00Z,26.4040,-81.8810,17.28,1111122 
COMPS,ioos:station:USF.COMPS:BGC:1,2014-04-01T09:30:00Z,26.4040,-81.8810,17.14,1111122 
COMPS,ioos:station:USF.COMPS:BGC:1,2014-04-01T09:36:00Z,26.4040,-81.8810,17.07,1111122 
COMPS,ioos:station:USF.COMPS:BGC:1,2014-04-01T09:42:00Z,26.4040,-81.8810,17.07,1111122 
COMPS,ioos:station:USF.COMPS:BGC:1,2014-04-01T09:48:00Z,26.4040,-81.8810,17.07,1111122 
COMPS,ioos:station:USF.COMPS:BGC:1,2014-04-01T09:54:00Z,26.4040,-81.8810,17.03,1111122 
COMPS,ioos:station:USF.COMPS:BGC:1,2014-04-01T10:00:00Z,26.4040,-81.8810,17.04,1111122 
COMPS,ioos:station:USF.COMPS:BGC:1,2014-04-01T10:06:00Z,26.4040,-81.8810,17.0,1111122 
COMPS,ioos:station:USF.COMPS:BGC:1,2014-04-01T10:12:00Z,26.4040,-81.8810,17.03,1111122 
COMPS,ioos:station:USF.COMPS:BGC:1,2014-04-01T10:18:00Z,26.4040,-81.8810,17.01,1111122 
COMPS,ioos:station:USF.COMPS:BGC:1,2014-04-01T10:24:00Z,26.4040,-81.8810,16.93,1111122 
COMPS,ioos:station:USF.COMPS:BGC:1,2014-04-01T10:30:00Z,26.4040,-81.8810,16.91,1111122 
COMPS,ioos:station:USF.COMPS:BGC:1,2014-04-01T10:36:00Z,26.4040,-81.8810,16.85,1111122 
COMPS,ioos:station:USF.COMPS:BGC:1,2014-04-01T10:42:00Z,26.4040,-81.8810,16.8,1111122 
COMPS,ioos:station:USF.COMPS:BGC:1,2014-04-01T10:48:00Z,26.4040,-81.8810,16.84,1111122 
COMPS,ioos:station:USF.COMPS:BGC:1,2014-04-01T10:54:00Z,26.4040,-81.8810,16.74,1111122 
COMPS,ioos:station:USF.COMPS:BGC:1,2014-04-01T11:00:00Z,26.4040,-81.8810,16.64,1111122 
COMPS,ioos:station:USF.COMPS:BGC:1,2014-04-01T11:06:00Z,26.4040,-81.8810,16.6,1111122 
COMPS,ioos:station:USF.COMPS:BGC:1,2014-04-01T11:12:00Z,26.4040,-81.8810,16.61,1111122 
COMPS,ioos:station:USF.COMPS:BGC:1,2014-04-01T11:18:00Z,26.4040,-81.8810,16.55,1111122 
COMPS,ioos:station:USF.COMPS:BGC:1,2014-04-01T11:24:00Z,26.4040,-81.8810,16.62,1111122 
COMPS,ioos:station:USF.COMPS:BGC:1,2014-04-01T11:30:00Z,26.4040,-81.8810,16.74,1111122 
COMPS,ioos:station:USF.COMPS:BGC:1,2014-04-01T11:36:00Z,26.4040,-81.8810,16.76,1111122 
COMPS,ioos:station:USF.COMPS:BGC:1,2014-04-01T11:42:00Z,26.4040,-81.8810,16.81,1111122 
COMPS,ioos:station:USF.COMPS:BGC:1,2014-04-01T11:48:00Z,26.4040,-81.8810,16.93,1111122 
COMPS,ioos:station:USF.COMPS:BGC:1,2014-04-01T11:54:00Z,26.4040,-81.8810,16.97,1111122 
COMPS,ioos:station:USF.COMPS:BGC:1,2014-04-01T12:00:00Z,26.4040,-81.8810,17.15,1111122 
COMPS,ioos:station:USF.COMPS:BGC:1,2014-04-01T12:06:00Z,26.4040,-81.8810,17.24,1111122 
COMPS,ioos:station:USF.COMPS:BGC:1,2014-04-01T12:12:00Z,26.4040,-81.8810,17.23,1111122 
COMPS,ioos:station:USF.COMPS:BGC:1,2014-04-01T12:18:00Z,26.4040,-81.8810,17.4,1111122 
COMPS,ioos:station:USF.COMPS:BGC:1,2014-04-01T12:24:00Z,26.4040,-81.8810,17.72,1111122 
COMPS,ioos:station:USF.COMPS:BGC:1,2014-04-01T12:30:00Z,26.4040,-81.8810,17.77,1111122 
COMPS,ioos:station:USF.COMPS:BGC:1,2014-04-01T12:36:00Z,26.4040,-81.8810,17.83,1111122 
COMPS,ioos:station:USF.COMPS:BGC:1,2014-04-01T12:42:00Z,26.4040,-81.8810,17.93,1111122 
COMPS,ioos:station:USF.COMPS:BGC:1,2014-04-01T12:48:00Z,26.4040,-81.8810,18.15,1111122 
COMPS,ioos:station:USF.COMPS:BGC:1,2014-04-01T12:54:00Z,26.4040,-81.8810,18.3,1111122 
COMPS,ioos:station:USF.COMPS:BGC:1,2014-04-01T13:00:00Z,26.4040,-81.8810,18.59,1111122 
COMPS,ioos:station:USF.COMPS:BGC:1,2014-04-01T13:06:00Z,26.4040,-81.8810,18.95,1111122 
COMPS,ioos:station:USF.COMPS:BGC:1,2014-04-01T13:12:00Z,26.4040,-81.8810,19.11,1111122 
COMPS,ioos:station:USF.COMPS:BGC:1,2014-04-01T13:18:00Z,26.4040,-81.8810,19.44,1111122 
COMPS,ioos:station:USF.COMPS:BGC:1,2014-04-01T13:24:00Z,26.4040,-81.8810,19.73,1111122 
COMPS,ioos:station:USF.COMPS:BGC:1,2014-04-01T13:30:00Z,26.4040,-81.8810,20.09,1111122 
COMPS,ioos:station:USF.COMPS:BGC:1,2014-04-01T13:36:00Z,26.4040,-81.8810,20.42,1111122 
COMPS,ioos:station:USF.COMPS:BGC:1,2014-04-01T13:42:00Z,26.4040,-81.8810,20.66,1111122 
COMPS,ioos:station:USF.COMPS:BGC:1,2014-04-01T13:48:00Z,26.4040,-81.8810,20.76,1111122 
COMPS,ioos:station:USF.COMPS:BGC:1,2014-04-01T13:54:00Z,26.4040,-81.8810,21.11,1111122 
COMPS,ioos:station:USF.COMPS:BGC:1,2014-04-01T14:00:00Z,26.4040,-81.8810,21.31,1111122 
COMPS,ioos:station:USF.COMPS:BGC:1,2014-04-01T14:06:00Z,26.4040,-81.8810,21.25,1111122 
COMPS,ioos:station:USF.COMPS:BGC:1,2014-04-01T14:12:00Z,26.4040,-81.8810,21.74,1111122 
COMPS,ioos:station:USF.COMPS:BGC:1,2014-04-01T14:18:00Z,26.4040,-81.8810,22.06,1111122 
COMPS,ioos:station:USF.COMPS:BGC:1,2014-04-01T14:24:00Z,26.4040,-81.8810,22.13,1111122 
COMPS,ioos:station:USF.COMPS:BGC:1,2014-04-01T14:30:00Z,26.4040,-81.8810,22.09,1111122 
COMPS,ioos:station:USF.COMPS:BGC:1,2014-04-01T14:36:00Z,26.4040,-81.8810,22.16,1111122 
COMPS,ioos:station:USF.COMPS:BGC:1,2014-04-01T14:42:00Z,26.4040,-81.8810,22.42,1111122 
COMPS,ioos:station:USF.COMPS:BGC:1,2014-04-01T14:48:00Z,26.4040,-81.8810,22.38,1111122 
COMPS,ioos:station:USF.COMPS:BGC:1,2014-04-01T14:54:00Z,26.4040,-81.8810,22.53,1111122 
COMPS,ioos:station:USF.COMPS:BGC:1,2014-04-01T15:00:00Z,26.4040,-81.8810,22.82,1111122 
COMPS,ioos:station:USF.COMPS:BGC:1,2014-04-01T15:06:00Z,26.4040,-81.8810,22.71,1111122 
COMPS,ioos:station:USF.COMPS:BGC:1,2014-04-01T15:12:00Z,26.4040,-81.8810,22.75,1111122 
COMPS,ioos:station:USF.COMPS:BGC:1,2014-04-01T15:18:00Z,26.4040,-81.8810,23.16,1111122 
COMPS,ioos:station:USF.COMPS:BGC:1,2014-04-01T15:24:00Z,26.4040,-81.8810,23.13,1111122 
COMPS,ioos:station:USF.COMPS:BGC:1,2014-04-01T15:30:00Z,26.4040,-81.8810,23.1,1111122 
COMPS,ioos:station:USF.COMPS:BGC:1,2014-04-01T15:36:00Z,26.4040,-81.8810,23.37,1111122 
COMPS,ioos:station:USF.COMPS:BGC:1,2014-04-01T15:42:00Z,26.4040,-81.8810,23.27,1111122 
COMPS,ioos:station:USF.COMPS:BGC:1,2014-04-01T15:48:00Z,26.4040,-81.8810,23.38,1111122 
COMPS,ioos:station:USF.COMPS:BGC:1,2014-04-01T15:54:00Z,26.4040,-81.8810,23.61,1111122 
COMPS,ioos:station:USF.COMPS:BGC:1,2014-04-01T16:00:00Z,26.4040,-81.8810,23.87,1111122 
COMPS,ioos:station:USF.COMPS:BGC:1,2014-04-01T16:06:00Z,26.4040,-81.8810,24.2,1111122 
COMPS,ioos:station:USF.COMPS:BGC:1,2014-04-01T16:12:00Z,26.4040,-81.8810,24.27,1111122 
COMPS,ioos:station:USF.COMPS:BGC:1,2014-04-01T16:18:00Z,26.4040,-81.8810,24.24,1111122 
COMPS,ioos:station:USF.COMPS:BGC:1,2014-04-01T16:24:00Z,26.4040,-81.8810,24.34,1111122 
COMPS,ioos:station:USF.COMPS:BGC:1,2014-04-01T16:30:00Z,26.4040,-81.8810,24.4,1111122 
COMPS,ioos:station:USF.COMPS:BGC:1,2014-04-01T16:36:00Z,26.4040,-81.8810,24.78,1111122 
COMPS,ioos:station:USF.COMPS:BGC:1,2014-04-01T16:42:00Z,26.4040,-81.8810,24.66,1111122 
COMPS,ioos:station:USF.COMPS:BGC:1,2014-04-01T16:48:00Z,26.4040,-81.8810,24.83,1111122 
COMPS,ioos:station:USF.COMPS:BGC:1,2014-04-01T16:54:00Z,26.4040,-81.8810,24.9,1111122 
COMPS,ioos:station:USF.COMPS:BGC:1,2014-04-01T17:00:00Z,26.4040,-81.8810,25.16,1111122 
COMPS,ioos:station:USF.COMPS:BGC:1,2014-04-01T17:06:00Z,26.4040,-81.8810,25.6,1111122 
COMPS,ioos:station:USF.COMPS:BGC:1,2014-04-01T17:12:00Z,26.4040,-81.8810,25.74,1111122 
COMPS,ioos:station:USF.COMPS:BGC:1,2014-04-01T17:18:00Z,26.4040,-81.8810,25.61,1111122 
COMPS,ioos:station:USF.COMPS:BGC:1,2014-04-01T17:24:00Z,26.4040,-81.8810,25.8,1111122 
COMPS,ioos:station:USF.COMPS:BGC:1,2014-04-01T17:30:00Z,26.4040,-81.8810,26.25,1111122 
COMPS,ioos:station:USF.COMPS:BGC:1,2014-04-01T17:36:00Z,26.4040,-81.8810,25.98,1111122 
COMPS,ioos:station:USF.COMPS:BGC:1,2014-04-01T17:42:00Z,26.4040,-81.8810,26.03,1111122 
COMPS,ioos:station:USF.COMPS:BGC:1,2014-04-01T17:48:00Z,26.4040,-81.8810,26.13,1111122 
COMPS,ioos:station:USF.COMPS:BGC:1,2014-04-01T17:54:00Z,26.4040,-81.8810,24.62,1111122 
COMPS,ioos:station:USF.COMPS:BGC:1,2014-04-01T18:00:00Z,26.4040,-81.8810,24.38,1111122 
COMPS,ioos:station:USF.COMPS:BGC:1,2014-04-01T18:06:00Z,26.4040,-81.8810,24.26,1111122 
COMPS,ioos:station:USF.COMPS:BGC:1,2014-04-01T18:12:00Z,26.4040,-81.8810,24.14,1111122 
COMPS,ioos:station:USF.COMPS:BGC:1,2014-04-01T18:18:00Z,26.4040,-81.8810,24.07,1111122 
COMPS,ioos:station:USF.COMPS:BGC:1,2014-04-01T18:24:00Z,26.4040,-81.8810,23.8,1111122 
COMPS,ioos:station:USF.COMPS:BGC:1,2014-04-01T18:30:00Z,26.4040,-81.8810,24.37,1111122 
COMPS,ioos:station:USF.COMPS:BGC:1,2014-04-01T18:36:00Z,26.4040,-81.8810,24.41,1111122 
COMPS,ioos:station:USF.COMPS:BGC:1,2014-04-01T18:42:00Z,26.4040,-81.8810,23.95,1111122 
COMPS,ioos:station:USF.COMPS:BGC:1,2014-04-01T18:48:00Z,26.4040,-81.8810,24.11,1111122 
COMPS,ioos:station:USF.COMPS:BGC:1,2014-04-01T18:54:00Z,26.4040,-81.8810,23.97,1111122 
COMPS,ioos:station:USF.COMPS:BGC:1,2014-04-01T19:00:00Z,26.4040,-81.8810,23.68,1111122 
COMPS,ioos:station:USF.COMPS:BGC:1,2014-04-01T19:06:00Z,26.4040,-81.8810,23.53,1111122 
COMPS,ioos:station:USF.COMPS:BGC:1,2014-04-01T19:12:00Z,26.4040,-81.8810,23.47,1111122 
COMPS,ioos:station:USF.COMPS:BGC:1,2014-04-01T19:18:00Z,26.4040,-81.8810,23.49,1111122 
COMPS,ioos:station:USF.COMPS:BGC:1,2014-04-01T19:24:00Z,26.4040,-81.8810,23.48,1111122 
COMPS,ioos:station:USF.COMPS:BGC:1,2014-04-01T19:30:00Z,26.4040,-81.8810,23.49,1111122 
COMPS,ioos:station:USF.COMPS:BGC:1,2014-04-01T19:36:00Z,26.4040,-81.8810,23.3,1111122 
COMPS,ioos:station:USF.COMPS:BGC:1,2014-04-01T19:42:00Z,26.4040,-81.8810,23.26,1111122 
COMPS,ioos:station:USF.COMPS:BGC:1,2014-04-01T19:48:00Z,26.4040,-81.8810,23.21,1111122 
COMPS,ioos:station:USF.COMPS:BGC:1,2014-04-01T19:54:00Z,26.4040,-81.8810,23.13,1111122 
COMPS,ioos:station:USF.COMPS:BGC:1,2014-04-01T20:00:00Z,26.4040,-81.8810,23.12,1111122 
COMPS,ioos:station:USF.COMPS:BGC:1,2014-04-01T20:06:00Z,26.4040,-81.8810,23.15,1111122 
COMPS,ioos:station:USF.COMPS:BGC:1,2014-04-01T20:12:00Z,26.4040,-81.8810,23.05,1111122 
COMPS,ioos:station:USF.COMPS:BGC:1,2014-04-01T20:18:00Z,26.4040,-81.8810,23.07,1111122 
COMPS,ioos:station:USF.COMPS:BGC:1,2014-04-01T20:24:00Z,26.4040,-81.8810,23.12,1111122 
COMPS,ioos:station:USF.COMPS:BGC:1,2014-04-01T20:30:00Z,26.4040,-81.8810,23.11,1111122 
COMPS,ioos:station:USF.COMPS:BGC:1,2014-04-01T20:36:00Z,26.4040,-81.8810,23.08,1111122 
COMPS,ioos:station:USF.COMPS:BGC:1,2014-04-01T20:42:00Z,26.4040,-81.8810,23.13,1111122 
COMPS,ioos:station:USF.COMPS:BGC:1,2014-04-01T20:48:00Z,26.4040,-81.8810,23.07,1111122 
COMPS,ioos:station:USF.COMPS:BGC:1,2014-04-01T20:54:00Z,26.4040,-81.8810,22.99,1111122 
COMPS,ioos:station:USF.COMPS:BGC:1,2014-04-01T21:00:00Z,26.4040,-81.8810,23.07,1111122 
COMPS,ioos:station:USF.COMPS:BGC:1,2014-04-01T21:06:00Z,26.4040,-81.8810,23.5,1111122 
COMPS,ioos:station:USF.COMPS:BGC:1,2014-04-01T21:12:00Z,26.4040,-81.8810,23.47,1111122 
COMPS,ioos:station:USF.COMPS:BGC:1,2014-04-01T21:18:00Z,26.4040,-81.8810,23.22,1111122 
COMPS,ioos:station:USF.COMPS:BGC:1,2014-04-01T21:24:00Z,26.4040,-81.8810,23.29,1111122 
COMPS,ioos:station:USF.COMPS:BGC:1,2014-04-01T21:30:00Z,26.4040,-81.8810,23.14,1111122 
COMPS,ioos:station:USF.COMPS:BGC:1,2014-04-01T21:36:00Z,26.4040,-81.8810,23.27,1111122 
COMPS,ioos:station:USF.COMPS:BGC:1,2014-04-01T21:42:00Z,26.4040,-81.8810,22.97,1111122 
COMPS,ioos:station:USF.COMPS:BGC:1,2014-04-01T21:48:00Z,26.4040,-81.8810,23.27,1111122 
COMPS,ioos:station:USF.COMPS:BGC:1,2014-04-01T21:54:00Z,26.4040,-81.8810,23.67,1111122 
COMPS,ioos:station:USF.COMPS:BGC:1,2014-04-01T22:00:00Z,26.4040,-81.8810,23.41,1111122 
COMPS,ioos:station:USF.COMPS:BGC:1,2014-04-01T22:06:00Z,26.4040,-81.8810,23.15,1111122 
COMPS,ioos:station:USF.COMPS:BGC:1,2014-04-01T22:12:00Z,26.4040,-81.8810,23.09,1111122 
COMPS,ioos:station:USF.COMPS:BGC:1,2014-04-01T22:18:00Z,26.4040,-81.8810,23.08,1111122 
COMPS,ioos:station:USF.COMPS:BGC:1,2014-04-01T22:24:00Z,26.4040,-81.8810,23.2,1111122 
COMPS,ioos:station:USF.COMPS:BGC:1,2014-04-01T22:30:00Z,26.4040,-81.8810,23.47,1111122 
COMPS,ioos:station:USF.COMPS:BGC:1,2014-04-01T22:36:00Z,26.4040,-81.8810,23.12,1111122 
COMPS,ioos:station:USF.COMPS:BGC:1,2014-04-01T22:42:00Z,26.4040,-81.8810,23.02,1111122 
COMPS,ioos:station:USF.COMPS:BGC:1,2014-04-01T22:48:00Z,26.4040,-81.8810,23.62,1111122 
COMPS,ioos:station:USF.COMPS:BGC:1,2014-04-01T22:54:00Z,26.4040,-81.8810,23.48,1111122 
COMPS,ioos:station:USF.COMPS:BGC:1,2014-04-01T23:00:00Z,26.4040,-81.8810,23.46,1111122 
COMPS,ioos:station:USF.COMPS:BGC:1,2014-04-01T23:06:00Z,26.4040,-81.8810,23.4,1111122 
COMPS,ioos:station:USF.COMPS:BGC:1,2014-04-01T23:12:00Z,26.4040,-81.8810,23.26,1111122 
COMPS,ioos:station:USF.COMPS:BGC:1,2014-04-01T23:18:00Z,26.4040,-81.8810,22.95,1111122 
COMPS,ioos:station:USF.COMPS:BGC:1,2014-04-01T23:24:00Z,26.4040,-81.8810,22.44,1111122 
COMPS,ioos:station:USF.COMPS:BGC:1,2014-04-01T23:30:00Z,26.4040,-81.8810,22.33,1111122 
COMPS,ioos:station:USF.COMPS:BGC:1,2014-04-01T23:36:00Z,26.4040,-81.8810,22.24,1111122 
COMPS,ioos:station:USF.COMPS:BGC:1,2014-04-01T23:42:00Z,26.4040,-81.8810,22.21,1111122 
COMPS,ioos:station:USF.COMPS:BGC:1,2014-04-01T23:48:00Z,26.4040,-81.8810,22.16,1111122 
COMPS,ioos:station:USF.COMPS:BGC:1,2014-04-01T23:54:00Z,26.4040,-81.8810,22.13,1111122 
COMPS,ioos:station:USF.COMPS:BGC:1,2014-04-02T00:00:00Z,26.4040,-81.8810,22.42,1111122 
COMPS,ioos:station:USF.COMPS:BGC:1,2014-04-02T00:06:00Z,26.4040,-81.8810,22.49,1111122 
COMPS,ioos:station:USF.COMPS:BGC:1,2014-04-02T00:12:00Z,26.4040,-81.8810,22.47,1111122 
COMPS,ioos:station:USF.COMPS:BGC:1,2014-04-02T00:18:00Z,26.4040,-81.8810,22.41,1111122 
COMPS,ioos:station:USF.COMPS:BGC:1,2014-04-02T00:24:00Z,26.4040,-81.8810,22.3,1111122 
COMPS,ioos:station:USF.COMPS:BGC:1,2014-04-02T00:30:00Z,26.4040,-81.8810,22.28,1111122 
COMPS,ioos:station:USF.COMPS:BGC:1,2014-04-02T00:36:00Z,26.4040,-81.8810,22.24,1111122 
COMPS,ioos:station:USF.COMPS:BGC:1,2014-04-02T00:42:00Z,26.4040,-81.8810,22.17,1111122 
COMPS,ioos:station:USF.COMPS:BGC:1,2014-04-02T00:48:00Z,26.4040,-81.8810,22.1,1111122 
COMPS,ioos:station:USF.COMPS:BGC:1,2014-04-02T00:54:00Z,26.4040,-81.8810,22.06,1111122 
COMPS,ioos:station:USF.COMPS:BGC:1,2014-04-02T01:00:00Z,26.4040,-81.8810,22.05,1111122 
COMPS,ioos:station:USF.COMPS:BGC:1,2014-04-02T01:06:00Z,26.4040,-81.8810,22.03,1111122 
COMPS,ioos:station:USF.COMPS:BGC:1,2014-04-02T01:12:00Z,26.4040,-81.8810,21.95,1111122 
COMPS,ioos:station:USF.COMPS:BGC:1,2014-04-02T01:18:00Z,26.4040,-81.8810,21.9,1111122 
COMPS,ioos:station:USF.COMPS:BGC:1,2014-04-02T01:24:00Z,26.4040,-81.8810,21.95,1111122 
COMPS,ioos:station:USF.COMPS:BGC:1,2014-04-02T01:30:00Z,26.4040,-81.8810,21.87,1111122 
COMPS,ioos:station:USF.COMPS:BGC:1,2014-04-02T01:36:00Z,26.4040,-81.8810,21.74,1111122 
COMPS,ioos:station:USF.COMPS:BGC:1,2014-04-02T01:42:00Z,26.4040,-81.8810,21.68,1111122 
COMPS,ioos:station:USF.COMPS:BGC:1,2014-04-02T01:48:00Z,26.4040,-81.8810,21.72,1111122 
COMPS,ioos:station:USF.COMPS:BGC:1,2014-04-02T01:54:00Z,26.4040,-81.8810,21.64,1111122 
COMPS,ioos:station:USF.COMPS:BGC:1,2014-04-02T02:00:00Z,26.4040,-81.8810,21.58,1111122 
COMPS,ioos:station:USF.COMPS:BGC:1,2014-04-02T02:06:00Z,26.4040,-81.8810,21.54,1111122 
COMPS,ioos:station:USF.COMPS:BGC:1,2014-04-02T02:12:00Z,26.4040,-81.8810,21.56,1111122 
COMPS,ioos:station:USF.COMPS:BGC:1,2014-04-02T02:18:00Z,26.4040,-81.8810,21.53,1111122 
COMPS,ioos:station:USF.COMPS:BGC:1,2014-04-02T02:24:00Z,26.4040,-81.8810,21.55,1111122 
COMPS,ioos:station:USF.COMPS:BGC:1,2014-04-02T02:30:00Z,26.4040,-81.8810,21.56,1111122 
COMPS,ioos:station:USF.COMPS:BGC:1,2014-04-02T02:36:00Z,26.4040,-81.8810,21.5,1111122 
COMPS,ioos:station:USF.COMPS:BGC:1,2014-04-02T02:42:00Z,26.4040,-81.8810,21.51,1111122 
COMPS,ioos:station:USF.COMPS:BGC:1,2014-04-02T02:48:00Z,26.4040,-81.8810,21.48,1111122 
COMPS,ioos:station:USF.COMPS:BGC:1,2014-04-02T02:54:00Z,26.4040,-81.8810,21.53,1111122 
COMPS,ioos:station:USF.COMPS:BGC:1,2014-04-02T03:00:00Z,26.4040,-81.8810,21.49,1111122 
COMPS,ioos:station:USF.COMPS:BGC:1,2014-04-02T03:06:00Z,26.4040,-81.8810,21.42,1111122 